TimeCST,TemperatureF,Dew PointF,Humidity,Sea Level PressureIn,VisibilityMPH,Wind Direction,Wind SpeedMPH,Gust SpeedMPH,PrecipitationIn,Events,Conditions,WindDirDegrees,DateUTC
12:15 AM,28.4,26.6,93,30.31,10.0,Calm,Calm,-,N/A,,Clear,0,2013-01-02 06:15:00
12:35 AM,28.4,26.6,93,30.31,10.0,West,3.5,-,N/A,,Clear,270,2013-01-02 06:35:00
12:55 AM,28.4,26.6,93,30.30,10.0,WNW,3.5,-,N/A,,Clear,290,2013-01-02 06:55:00
1:15 AM,28.4,26.6,93,30.30,7.0,NW,4.6,-,N/A,,Clear,320,2013-01-02 07:15:00
1:35 AM,28.4,26.6,93,30.29,7.0,NNW,5.8,-,N/A,,Clear,330,2013-01-02 07:35:00
1:55 AM,30.2,26.6,86,30.29,7.0,NNW,3.5,-,N/A,,Clear,340,2013-01-02 07:55:00
2:15 AM,30.2,26.6,86,30.30,10.0,NNW,5.8,-,N/A,,Clear,340,2013-01-02 08:15:00
2:35 AM,30.2,26.6,86,30.30,7.0,NNW,4.6,-,N/A,,Clear,330,2013-01-02 08:35:00
3:15 AM,30.2,26.6,86,30.30,10.0,North,4.6,-,N/A,,Clear,350,2013-01-02 09:15:00
3:35 AM,30.2,24.8,80,30.30,10.0,NNW,4.6,-,N/A,,Clear,340,2013-01-02 09:35:00
3:55 AM,30.2,24.8,80,30.30,10.0,NNW,4.6,-,N/A,,Clear,340,2013-01-02 09:55:00
4:15 AM,30.2,24.8,80,30.29,7.0,Calm,Calm,-,N/A,,Clear,0,2013-01-02 10:15:00
4:35 AM,30.2,24.8,80,30.29,10.0,NW,4.6,-,N/A,,Clear,320,2013-01-02 10:35:00
4:55 AM,28.4,24.8,86,30.28,7.0,NW,3.5,-,N/A,,Clear,320,2013-01-02 10:55:00
5:15 AM,28.4,24.8,86,30.29,7.0,Calm,Calm,-,N/A,,Clear,0,2013-01-02 11:15:00
5:35 AM,28.4,26.6,93,30.30,5.0,WNW,4.6,-,N/A,,Clear,290,2013-01-02 11:35:00
5:55 AM,28.4,26.6,93,30.30,5.0,NW,3.5,-,N/A,,Clear,310,2013-01-02 11:55:00
6:15 AM,28.4,26.6,93,30.30,7.0,NW,3.5,-,N/A,,Clear,310,2013-01-02 12:15:00
6:35 AM,28.4,26.6,93,30.30,5.0,WNW,3.5,-,N/A,,Clear,300,2013-01-02 12:35:00
6:55 AM,28.4,26.6,93,30.30,5.0,Calm,Calm,-,N/A,,Clear,0,2013-01-02 12:55:00
7:15 AM,28.4,26.6,93,30.31,5.0,WNW,3.5,-,N/A,,Clear,300,2013-01-02 13:15:00
7:35 AM,28.4,26.6,93,30.31,5.0,NW,3.5,-,N/A,,Clear,310,2013-01-02 13:35:00
7:55 AM,28.4,26.6,93,30.32,5.0,North,-9999.0,-,N/A,,Clear,0,2013-01-02 13:55:00
8:15 AM,28.4,26.6,93,30.32,5.0,North,-9999.0,-,N/A,,Clear,0,2013-01-02 14:15:00
8:35 AM,28.4,26.6,93,30.33,5.0,West,3.5,-,N/A,,Clear,280,2013-01-02 14:35:00
9:15 AM,30.2,26.6,86,30.34,7.0,NW,3.5,-,N/A,,Clear,310,2013-01-02 15:15:00
9:35 AM,32.0,28.4,87,30.34,7.0,WNW,6.9,-,N/A,,Clear,300,2013-01-02 15:35:00
9:55 AM,32.0,28.4,87,30.35,7.0,NW,6.9,-,N/A,,Clear,310,2013-01-02 15:55:00
10:35 AM,33.8,26.6,75,30.35,10.0,North,-9999.0,-,N/A,,Clear,0,2013-01-02 16:35:00
10:55 AM,35.6,26.6,70,30.35,10.0,NW,4.6,-,N/A,,Clear,320,2013-01-02 16:55:00
11:15 AM,35.6,26.6,70,30.34,10.0,NNW,6.9,-,N/A,,Clear,340,2013-01-02 17:15:00
11:35 AM,35.6,26.6,70,30.33,10.0,NNW,5.8,-,N/A,,Clear,340,2013-01-02 17:35:00
11:55 AM,35.6,26.6,70,30.32,10.0,NW,4.6,-,N/A,,Clear,320,2013-01-02 17:55:00
12:15 PM,37.4,26.6,65,30.31,10.0,NW,3.5,-,N/A,,Clear,320,2013-01-02 18:15:00
12:35 PM,39.2,24.8,56,30.30,10.0,NW,5.8,-,N/A,,Clear,310,2013-01-02 18:35:00
12:55 PM,39.2,24.8,56,30.29,10.0,NNW,4.6,-,N/A,,Clear,330,2013-01-02 18:55:00
1:15 PM,41.0,24.8,53,30.27,10.0,Calm,Calm,-,N/A,,Clear,0,2013-01-02 19:15:00
1:35 PM,41.0,23.0,49,30.26,10.0,NNW,5.8,-,N/A,,Clear,340,2013-01-02 19:35:00
1:55 PM,42.8,23.0,46,30.25,10.0,WNW,4.6,-,N/A,,Clear,300,2013-01-02 19:55:00
2:35 PM,42.8,23.0,46,30.24,10.0,North,4.6,-,N/A,,Clear,10,2013-01-02 20:35:00
2:55 PM,44.6,23.0,43,30.24,10.0,NNW,3.5,-,N/A,,Clear,340,2013-01-02 20:55:00
3:15 PM,44.6,23.0,43,30.23,10.0,North,4.6,-,N/A,,Clear,350,2013-01-02 21:15:00
3:35 PM,44.6,23.0,43,30.23,10.0,NNW,3.5,-,N/A,,Clear,340,2013-01-02 21:35:00
3:55 PM,44.6,23.0,43,30.23,10.0,North,6.9,-,N/A,,Clear,10,2013-01-02 21:55:00
4:15 PM,44.6,23.0,43,30.23,10.0,North,3.5,-,N/A,,Clear,350,2013-01-02 22:15:00
4:35 PM,44.6,23.0,43,30.23,10.0,North,-9999.0,-,N/A,,Clear,0,2013-01-02 22:35:00
5:15 PM,44.6,23.0,43,30.23,10.0,Calm,Calm,-,N/A,,Clear,0,2013-01-02 23:15:00
5:35 PM,44.6,23.0,43,30.24,10.0,Calm,Calm,-,N/A,,Clear,0,2013-01-02 23:35:00
5:55 PM,42.8,24.8,49,30.24,10.0,Calm,Calm,-,N/A,,Clear,0,2013-01-02 23:55:00
6:15 PM,42.8,24.8,49,30.25,10.0,ESE,3.5,-,N/A,,Clear,120,2013-01-03 00:15:00
6:55 PM,35.6,24.8,65,30.26,10.0,ESE,3.5,-,N/A,,Clear,120,2013-01-03 00:55:00
7:15 PM,37.4,24.8,60,30.27,10.0,ESE,5.8,-,N/A,,Clear,120,2013-01-03 01:15:00
7:35 PM,35.6,24.8,65,30.28,10.0,ESE,4.6,-,N/A,,Clear,120,2013-01-03 01:35:00
7:55 PM,33.8,24.8,70,30.28,10.0,ESE,3.5,-,N/A,,Clear,110,2013-01-03 01:55:00
8:15 PM,35.6,23.0,60,30.29,10.0,SE,4.6,-,N/A,,Clear,130,2013-01-03 02:15:00
8:35 PM,32.0,23.0,69,30.29,10.0,ESE,3.5,-,N/A,,Clear,120,2013-01-03 02:35:00
8:55 PM,32.0,23.0,69,30.29,10.0,ESE,3.5,-,N/A,,Clear,110,2013-01-03 02:55:00
9:15 PM,32.0,23.0,69,30.30,10.0,SSE,3.5,-,N/A,,Clear,160,2013-01-03 03:15:00
9:35 PM,32.0,23.0,69,30.30,10.0,SSE,3.5,-,N/A,,Clear,160,2013-01-03 03:35:00
9:55 PM,30.2,23.0,75,30.31,10.0,Calm,Calm,-,N/A,,Clear,0,2013-01-03 03:55:00
10:15 PM,30.2,23.0,75,30.31,10.0,Calm,Calm,-,N/A,,Clear,0,2013-01-03 04:15:00
10:35 PM,30.2,23.0,75,30.32,10.0,Calm,Calm,-,N/A,,Clear,0,2013-01-03 04:35:00
10:55 PM,30.2,23.0,75,30.33,10.0,Calm,Calm,-,N/A,,Clear,0,2013-01-03 04:55:00
11:15 PM,30.2,23.0,75,30.33,10.0,WSW,5.8,-,N/A,,Clear,240,2013-01-03 05:15:00
11:35 PM,28.4,23.0,80,30.34,10.0,WSW,3.5,-,N/A,,Clear,250,2013-01-03 05:35:00
11:55 PM,30.2,23.0,75,30.34,10.0,SW,5.8,-,N/A,,Clear,220,2013-01-03 05:55:00